DMSP 5D-2 F13 DEB, 40437

Orbit data source: Space-Track

DMSP 5D-2 F13 DEB, 40437 is space debris in SSO originally from a launch on Fri, 24 Mar 1995 UTC launched from the Air Force Western Test Range (AFWTR). Debris objects in space refer to the collection of defunct objects orbiting the Earth. Examples of debris include non-operational satellites, rocket bodies, and fragments generated from explosions, collisions, or faulty payload assembly.

Loading next visibility...
Identifier
40437, 1995-015AP
Orbit
SSO
Country
Flag of USUS
Related business
Manufacturer
Unknown
Mission
Spacecraft
Bus & Motor
Unknown
Mass
Unknown
Launch date (UTC)
1995-03-24 (31 years ago)
Launch vehicle
Unknown
Launch site
Air Force Western Test Range (AFWTR)
Object type
Payload
Rocket body
Debris
Shape & HBR
Unknown shape, 0.1 m
Radar Cross Section
Small (<0.1 m²)

Expand to show TLE details & history
Last TLE update: 5 hours ago

TLE from 5 hours ago
0 DMSP 5D-2 F13 DEB
1 40437U 95015AP  25295.12895304  .00035926  00000-0  67513-2 0  9992
2 40437  98.6743 354.7717 0015982 123.6777 236.5950 14.64440668555074
Epoch: 2025-10-22T03:05Z
TLE epoch observation values (Epoch: 2025-10-22T03:05:41.542Z)
Latitude
-0.00009°
Longitude
-82.45837°
Altitude
688.071 km
Speed
7.509 km/s
True Right ascension
23h 39m 05s
True Declination
0° 00' 00"
Sunlit
Object was in full shadow at epoch
Visualization orbit readout
Latitude
Unknown
Longitude
Unknown
Altitude
Unknown
Speed
Unknown
Apparent Right ascension
Unknown
Apparent Declination
Unknown
Sunlit
N/A
Visualization observer readout
Local Sidereal Time
03:36:40
Azimuth
Unknown
Elevation
Unknown
Doppler factor
Unknown
Orbital elements
Apogee altitude
687.243 km
Perigee altitude
664.696 km
Semi-major axis
7,054.106 km
Eccentricity
0.0016
Inclination
98.6743°
RAAN
354.7717°
Arg. of periapsis
123.6777°
True anomaly
236.44228°
Mean anomaly
236.595°
Eccentric anomaly
236.51862°
Mean motion
3.66336 °/min
Orbital period
98.27 mins
BSTAR
0.0067513

Documentation

Showing up to 5 results
|